Time,TemperatureF,DewpointF,PressureIn,WindDirection,WindDirectionDegrees,WindSpeedMPH,WindSpeedGustMPH,Humidity,HourlyPrecipIn,Conditions,Clouds,dailyrainin,SoftwareType,DateUTC
2013-08-09 00:01:00,64.0,56.0,31.87,North,0,0.0,0.0,75,0.00,,,0.00,VWS V14.01,2013-08-09 04:01:00,
2013-08-09 00:03:00,64.0,56.0,31.87,North,0,0.0,0.0,75,0.00,,,0.00,VWS V14.01,2013-08-09 04:03:00,
2013-08-09 00:04:00,64.0,56.0,31.87,North,0,0.0,0.0,75,0.00,,,0.00,VWS V14.01,2013-08-09 04:04:00,
2013-08-09 00:05:00,63.9,55.8,31.87,North,0,0.0,0.0,75,0.00,,,0.00,VWS V14.01,2013-08-09 04:05:00,
2013-08-09 00:09:00,63.9,56.2,31.87,North,0,0.0,0.0,76,0.00,,,0.00,VWS V14.01,2013-08-09 04:09:00,
2013-08-09 00:14:00,63.9,56.2,31.87,North,0,0.0,0.0,76,0.00,,,0.00,VWS V14.01,2013-08-09 04:14:00,
2013-08-09 00:19:00,63.9,56.2,31.87,North,0,0.0,0.0,76,0.00,,,0.00,VWS V14.01,2013-08-09 04:19:00,
2013-08-09 00:26:00,63.7,56.0,31.87,North,0,0.0,0.0,76,0.00,,,0.00,VWS V14.01,2013-08-09 04:26:00,
2013-08-09 00:32:00,63.5,56.2,31.87,North,0,0.0,0.0,77,0.00,,,0.00,VWS V14.01,2013-08-09 04:32:00,
2013-08-09 00:37:00,63.3,56.0,31.87,North,0,0.0,0.0,77,0.00,,,0.00,VWS V14.01,2013-08-09 04:37:00,
2013-08-09 00:43:00,63.5,56.2,31.87,North,0,0.0,0.0,77,0.00,,,0.00,VWS V14.01,2013-08-09 04:43:00,
2013-08-09 00:49:00,63.3,56.0,31.87,North,0,0.0,0.0,77,0.00,,,0.00,VWS V14.01,2013-08-09 04:49:00,
2013-08-09 00:56:00,63.1,56.2,31.87,North,0,0.0,0.0,78,0.00,,,0.00,VWS V14.01,2013-08-09 04:56:00,
2013-08-09 01:02:00,63.1,56.2,31.87,North,0,0.0,0.0,78,0.00,,,0.00,VWS V14.01,2013-08-09 05:02:00,
2013-08-09 01:07:00,63.1,56.2,31.87,North,0,0.0,0.0,78,0.00,,,0.00,VWS V14.01,2013-08-09 05:07:00,
2013-08-09 01:12:00,63.1,56.2,31.87,North,0,0.0,0.0,78,0.00,,,0.00,VWS V14.01,2013-08-09 05:12:00,
2013-08-09 01:17:00,63.1,56.2,31.87,North,0,0.0,0.0,78,0.00,,,0.00,VWS V14.01,2013-08-09 05:17:00,
2013-08-09 01:22:00,63.1,56.2,31.87,North,0,0.0,0.0,78,0.00,,,0.00,VWS V14.01,2013-08-09 05:22:00,
2013-08-09 01:28:00,63.1,56.2,31.87,North,0,0.0,0.0,78,0.00,,,0.00,VWS V14.01,2013-08-09 05:28:00,
2013-08-09 01:34:00,63.1,56.2,31.87,North,0,0.0,0.0,78,0.00,,,0.00,VWS V14.01,2013-08-09 05:34:00,
2013-08-09 01:39:00,63.1,56.2,31.87,North,0,0.0,0.0,78,0.00,,,0.00,VWS V14.01,2013-08-09 05:39:00,
2013-08-09 01:46:00,63.1,56.2,31.87,North,1,0.0,0.0,78,0.00,,,0.00,VWS V14.01,2013-08-09 05:46:00,
2013-08-09 01:52:00,63.1,56.2,31.87,North,0,0.0,0.0,78,0.00,,,0.00,VWS V14.01,2013-08-09 05:52:00,
2013-08-09 01:57:00,63.1,56.2,31.87,North,0,0.0,0.0,78,0.00,,,0.00,VWS V14.01,2013-08-09 05:57:00,
2013-08-09 02:03:00,63.1,56.2,31.87,North,0,0.0,0.0,78,0.00,,,0.00,VWS V14.01,2013-08-09 06:03:00,
2013-08-09 02:09:00,63.1,56.2,31.87,North,0,0.0,0.0,78,0.00,,,0.00,VWS V14.01,2013-08-09 06:09:00,
2013-08-09 02:14:00,62.6,56.7,31.87,North,0,0.0,0.0,81,0.00,,,0.00,VWS V14.01,2013-08-09 06:14:00,
2013-08-09 02:22:00,62.6,56.7,31.87,North,0,0.0,0.0,81,0.00,,,0.00,VWS V14.01,2013-08-09 06:22:00,
2013-08-09 02:27:00,62.6,56.7,31.87,North,0,0.0,0.0,81,0.00,,,0.00,VWS V14.01,2013-08-09 06:27:00,
2013-08-09 02:32:00,62.6,56.7,31.87,North,0,0.0,0.0,81,0.00,,,0.00,VWS V14.01,2013-08-09 06:32:00,
2013-08-09 02:38:00,62.6,56.7,31.87,North,0,0.0,0.0,81,0.00,,,0.00,VWS V14.01,2013-08-09 06:38:00,
2013-08-09 02:43:00,62.6,56.7,31.87,North,0,0.0,0.0,81,0.00,,,0.00,VWS V14.01,2013-08-09 06:43:00,
2013-08-09 02:48:00,62.6,56.7,31.87,North,0,0.0,0.0,81,0.00,,,0.00,VWS V14.01,2013-08-09 06:48:00,
2013-08-09 02:54:00,62.1,56.5,31.87,North,0,0.0,0.0,82,0.00,,,0.00,VWS V14.01,2013-08-09 06:54:00,
2013-08-09 02:59:00,62.1,56.5,31.87,North,0,0.0,0.0,82,0.00,,,0.00,VWS V14.01,2013-08-09 06:59:00,
2013-08-09 03:04:00,61.9,56.3,31.87,North,0,0.0,0.0,82,0.00,,,0.00,VWS V14.01,2013-08-09 07:04:00,
2013-08-09 03:10:00,61.9,56.3,31.87,North,0,0.0,0.0,82,0.00,,,0.00,VWS V14.01,2013-08-09 07:10:00,
2013-08-09 03:15:00,61.9,56.3,31.87,North,0,0.0,0.0,82,0.00,,,0.00,VWS V14.01,2013-08-09 07:15:00,
2013-08-09 03:21:00,61.9,56.3,31.87,North,0,0.0,0.0,82,0.00,,,0.00,VWS V14.01,2013-08-09 07:21:00,
2013-08-09 03:26:00,61.9,56.3,31.87,North,0,0.0,0.0,82,0.00,,,0.00,VWS V14.01,2013-08-09 07:26:00,
2013-08-09 03:31:00,61.9,56.3,31.87,North,0,0.0,0.0,82,0.00,,,0.00,VWS V14.01,2013-08-09 07:31:00,
2013-08-09 03:37:00,61.9,56.3,31.87,North,0,0.0,0.0,82,0.00,,,0.00,VWS V14.01,2013-08-09 07:37:00,
2013-08-09 03:43:00,61.9,56.3,31.87,North,0,0.0,0.0,82,0.00,,,0.00,VWS V14.01,2013-08-09 07:43:00,
2013-08-09 03:48:00,61.9,56.3,31.87,North,0,0.0,0.0,82,0.00,,,0.00,VWS V14.01,2013-08-09 07:48:00,
2013-08-09 03:54:00,61.9,56.3,31.87,North,0,0.0,0.0,82,0.00,,,0.00,VWS V14.01,2013-08-09 07:54:00,
2013-08-09 03:59:00,61.9,56.3,31.87,North,0,0.0,0.0,82,0.00,,,0.00,VWS V14.01,2013-08-09 07:59:00,
2013-08-09 04:04:00,61.9,56.3,31.87,North,0,0.0,0.0,82,0.00,,,0.00,VWS V14.01,2013-08-09 08:04:00,
2013-08-09 04:11:00,61.9,56.3,31.87,North,0,0.0,0.0,82,0.00,,,0.00,VWS V14.01,2013-08-09 08:11:00,
2013-08-09 04:17:00,61.9,56.3,31.87,North,0,0.0,0.0,82,0.00,,,0.00,VWS V14.01,2013-08-09 08:17:00,
2013-08-09 04:23:00,61.9,56.3,31.87,North,0,0.0,0.0,82,0.00,,,0.00,VWS V14.01,2013-08-09 08:23:00,
2013-08-09 04:29:00,61.9,56.3,31.87,North,0,0.0,0.0,82,0.00,,,0.00,VWS V14.01,2013-08-09 08:29:00,
2013-08-09 04:34:00,61.9,56.3,31.87,North,0,0.0,0.0,82,0.00,,,0.00,VWS V14.01,2013-08-09 08:34:00,
2013-08-09 04:40:00,61.9,56.3,31.87,North,0,0.0,0.0,82,0.00,,,0.00,VWS V14.01,2013-08-09 08:40:00,
2013-08-09 04:45:00,61.9,56.3,31.87,North,0,0.0,0.0,82,0.00,,,0.00,VWS V14.01,2013-08-09 08:45:00,
2013-08-09 04:51:00,61.9,56.3,31.87,North,0,0.0,0.0,82,0.00,,,0.00,VWS V14.01,2013-08-09 08:51:00,
2013-08-09 04:56:00,61.9,56.3,31.87,North,0,0.0,0.0,82,0.00,,,0.00,VWS V14.01,2013-08-09 08:56:00,
2013-08-09 05:02:00,61.9,56.3,31.87,North,0,0.0,0.0,82,0.00,,,0.00,VWS V14.01,2013-08-09 09:02:00,
2013-08-09 05:07:00,61.9,56.3,31.87,North,0,0.0,0.0,82,0.00,,,0.00,VWS V14.01,2013-08-09 09:07:00,
2013-08-09 05:12:00,61.9,56.3,31.87,North,0,0.0,0.0,82,0.00,,,0.00,VWS V14.01,2013-08-09 09:12:00,
2013-08-09 05:18:00,61.9,56.3,31.87,North,0,0.0,0.0,82,0.00,,,0.00,VWS V14.01,2013-08-09 09:18:00,
2013-08-09 05:23:00,61.9,56.3,31.87,North,0,0.0,0.0,82,0.00,,,0.00,VWS V14.01,2013-08-09 09:23:00,
2013-08-09 05:29:00,61.9,56.3,31.87,North,0,0.0,0.0,82,0.00,,,0.00,VWS V14.01,2013-08-09 09:29:00,
2013-08-09 05:34:00,61.9,56.3,31.87,North,0,0.0,0.0,82,0.00,,,0.00,VWS V14.01,2013-08-09 09:34:00,
2013-08-09 05:41:00,61.9,56.3,31.87,North,0,0.0,0.0,82,0.00,,,0.00,VWS V14.01,2013-08-09 09:41:00,
2013-08-09 05:47:00,61.9,56.3,31.87,North,0,0.0,0.0,82,0.00,,,0.00,VWS V14.01,2013-08-09 09:47:00,
2013-08-09 05:52:00,61.9,56.3,31.87,North,0,0.0,0.0,82,0.00,,,0.00,VWS V14.01,2013-08-09 09:52:00,
2013-08-09 05:57:00,61.9,56.3,31.87,North,0,0.0,0.0,82,0.00,,,0.00,VWS V14.01,2013-08-09 09:57:00,
2013-08-09 06:03:00,60.4,56.9,31.87,North,0,0.0,0.0,88,0.00,,,0.00,VWS V14.01,2013-08-09 10:03:00,
2013-08-09 06:08:00,60.4,56.9,31.87,North,0,0.0,0.0,88,0.00,,,0.00,VWS V14.01,2013-08-09 10:08:00,
2013-08-09 06:13:00,60.1,56.5,31.87,North,0,0.0,0.0,88,0.00,,,0.00,VWS V14.01,2013-08-09 10:13:00,
2013-08-09 06:18:00,60.1,56.5,31.87,North,0,0.0,0.0,88,0.00,,,0.00,VWS V14.01,2013-08-09 10:18:00,
2013-08-09 06:24:00,59.9,56.3,31.87,North,0,0.0,0.0,88,0.00,,,0.00,VWS V14.01,2013-08-09 10:24:00,
2013-08-09 06:29:00,59.9,56.3,31.87,North,0,0.0,0.0,88,0.00,,,0.00,VWS V14.01,2013-08-09 10:29:00,
2013-08-09 06:36:00,59.9,56.3,31.87,North,0,0.0,0.0,88,0.00,,,0.00,VWS V14.01,2013-08-09 10:36:00,
2013-08-09 06:41:00,59.9,56.3,31.87,North,357,0.0,0.0,88,0.00,,,0.00,VWS V14.01,2013-08-09 10:41:00,
2013-08-09 06:46:00,59.9,56.3,31.87,North,0,0.0,0.0,88,0.00,,,0.00,VWS V14.01,2013-08-09 10:46:00,
2013-08-09 06:52:00,59.9,56.3,31.87,North,0,0.0,0.0,88,0.00,,,0.00,VWS V14.01,2013-08-09 10:52:00,
2013-08-09 06:57:00,59.9,56.3,31.87,North,0,0.0,0.0,88,0.00,,,0.00,VWS V14.01,2013-08-09 10:57:00,
2013-08-09 07:03:00,59.9,56.3,31.87,North,0,0.0,0.0,88,0.00,,,0.00,VWS V14.01,2013-08-09 11:03:00,
2013-08-09 07:08:00,59.9,56.3,31.87,North,0,0.0,0.0,88,0.00,,,0.00,VWS V14.01,2013-08-09 11:08:00,
2013-08-09 07:13:00,59.9,56.3,31.87,North,0,0.0,0.0,88,0.00,,,0.00,VWS V14.01,2013-08-09 11:13:00,
2013-08-09 07:18:00,59.9,56.3,31.87,North,0,0.0,0.0,88,0.00,,,0.00,VWS V14.01,2013-08-09 11:18:00,
2013-08-09 07:24:00,59.9,56.3,31.87,North,0,0.0,0.0,88,0.00,,,0.00,VWS V14.01,2013-08-09 11:24:00,
2013-08-09 07:29:00,59.9,56.3,31.87,North,0,0.0,0.0,88,0.00,,,0.00,VWS V14.01,2013-08-09 11:29:00,
2013-08-09 07:35:00,59.9,56.3,31.87,North,0,0.0,0.0,88,0.00,,,0.00,VWS V14.01,2013-08-09 11:35:00,
2013-08-09 07:41:00,59.9,56.3,31.87,North,0,0.0,0.0,88,0.00,,,0.00,VWS V14.01,2013-08-09 11:41:00,
2013-08-09 07:47:00,59.9,56.3,31.87,North,0,0.0,0.0,88,0.00,,,0.00,VWS V14.01,2013-08-09 11:47:00,
2013-08-09 07:53:00,59.9,56.3,31.87,North,0,0.0,0.0,88,0.00,,,0.00,VWS V14.01,2013-08-09 11:53:00,
2013-08-09 07:58:00,59.9,56.3,31.87,North,0,0.0,0.0,88,0.00,,,0.00,VWS V14.01,2013-08-09 11:58:00,
2013-08-09 08:03:00,59.9,56.3,31.87,North,0,0.0,0.0,88,0.00,,,0.00,VWS V14.01,2013-08-09 12:03:00,
2013-08-09 08:09:00,59.9,56.3,31.87,North,0,0.0,0.0,88,0.00,,,0.00,VWS V14.01,2013-08-09 12:09:00,
2013-08-09 08:14:00,59.9,56.3,31.87,North,0,0.0,0.0,88,0.00,,,0.00,VWS V14.01,2013-08-09 12:14:00,
2013-08-09 08:21:00,59.9,56.3,31.87,North,0,0.0,0.0,88,0.00,,,0.00,VWS V14.01,2013-08-09 12:21:00,
2013-08-09 08:26:00,59.9,56.3,31.87,North,0,0.0,0.0,88,0.00,,,0.00,VWS V14.01,2013-08-09 12:26:00,
2013-08-09 08:31:00,59.9,56.3,31.87,North,0,0.0,0.0,88,0.00,,,0.00,VWS V14.01,2013-08-09 12:31:00,
2013-08-09 08:37:00,59.9,56.3,31.87,North,0,0.0,0.0,88,0.00,,,0.00,VWS V14.01,2013-08-09 12:37:00,
2013-08-09 08:42:00,59.9,56.3,31.87,North,0,0.0,0.0,88,0.00,,,0.00,VWS V14.01,2013-08-09 12:42:00,
2013-08-09 08:48:00,59.9,56.3,31.87,North,0,0.0,0.0,88,0.00,,,0.00,VWS V14.01,2013-08-09 12:48:00,
2013-08-09 08:53:00,59.9,56.3,31.87,North,0,0.0,0.0,88,0.00,,,0.00,VWS V14.01,2013-08-09 12:53:00,
2013-08-09 08:59:00,59.9,56.3,31.87,North,0,0.0,0.0,88,0.00,,,0.00,VWS V14.01,2013-08-09 12:59:00,
2013-08-09 09:04:00,59.9,56.3,31.87,North,0,0.0,0.0,88,0.00,,,0.00,VWS V14.01,2013-08-09 13:04:00,
2013-08-09 09:11:00,62.2,59.6,31.87,North,0,0.0,0.0,91,0.00,,,0.00,VWS V14.01,2013-08-09 13:11:00,
2013-08-09 09:17:00,62.2,59.6,31.87,North,0,0.0,0.0,91,0.00,,,0.00,VWS V14.01,2013-08-09 13:17:00,
2013-08-09 09:22:00,62.2,59.6,31.87,North,0,0.0,0.0,91,0.00,,,0.00,VWS V14.01,2013-08-09 13:22:00,
2013-08-09 09:27:00,62.2,59.6,31.87,North,0,0.0,0.0,91,0.00,,,0.00,VWS V14.01,2013-08-09 13:27:00,
2013-08-09 09:33:00,62.2,59.6,31.87,SSW,196,0.0,0.0,91,0.00,,,0.00,VWS V14.01,2013-08-09 13:33:00,
2013-08-09 09:38:00,62.2,59.6,31.87,SSW,196,0.0,0.0,91,0.00,,,0.00,VWS V14.01,2013-08-09 13:38:00,
2013-08-09 09:43:00,62.2,59.6,31.87,SSW,196,0.0,0.0,91,0.00,,,0.00,VWS V14.01,2013-08-09 13:43:00,
2013-08-09 09:48:00,62.2,59.6,31.87,SSW,197,0.0,0.0,91,0.00,,,0.00,VWS V14.01,2013-08-09 13:48:00,
2013-08-09 09:53:00,62.2,59.6,31.87,NW,306,0.0,7.8,91,0.00,,,0.00,VWS V14.01,2013-08-09 13:53:00,
2013-08-09 09:59:00,62.2,59.6,31.87,NW,311,0.0,0.0,91,0.00,,,0.00,VWS V14.01,2013-08-09 13:59:00,
2013-08-09 10:06:00,62.2,59.6,31.87,NW,311,0.0,0.0,91,0.00,,,0.00,VWS V14.01,2013-08-09 14:06:00,
2013-08-09 10:11:00,62.2,59.6,31.87,NW,311,0.0,0.0,91,0.00,,,0.00,VWS V14.01,2013-08-09 14:11:00,
2013-08-09 10:17:00,62.2,59.6,31.87,NW,311,0.0,0.0,91,0.00,,,0.00,VWS V14.01,2013-08-09 14:17:00,
2013-08-09 10:23:00,62.2,59.6,31.87,WNW,284,0.0,0.0,91,0.00,,,0.00,VWS V14.01,2013-08-09 14:23:00,
2013-08-09 10:29:00,62.2,59.6,31.87,WNW,300,0.0,0.0,91,0.00,,,0.00,VWS V14.01,2013-08-09 14:29:00,
2013-08-09 10:34:00,62.2,59.6,31.87,WNW,301,0.0,0.0,91,0.00,,,0.00,VWS V14.01,2013-08-09 14:34:00,
2013-08-09 10:39:00,62.2,59.6,31.87,NNW,337,0.0,0.0,91,0.00,,,0.00,VWS V14.01,2013-08-09 14:39:00,
2013-08-09 10:44:00,62.2,59.6,31.87,NNW,338,0.0,0.0,91,0.00,,,0.00,VWS V14.01,2013-08-09 14:44:00,
2013-08-09 10:51:00,69.1,62.3,31.87,NW,315,0.0,0.0,79,0.00,,,0.00,VWS V14.01,2013-08-09 14:51:00,
2013-08-09 10:57:00,69.4,61.9,31.87,NNW,331,0.0,0.0,77,0.00,,,0.00,VWS V14.01,2013-08-09 14:57:00,
2013-08-09 11:02:00,69.4,61.9,31.87,NNW,331,0.0,0.0,77,0.00,,,0.00,VWS V14.01,2013-08-09 15:02:00,
2013-08-09 11:08:00,69.4,61.9,31.87,NNW,343,0.0,5.6,77,0.00,,,0.00,VWS V14.01,2013-08-09 15:08:00,
2013-08-09 11:13:00,69.4,61.9,31.87,NNW,345,0.0,0.0,77,0.00,,,0.00,VWS V14.01,2013-08-09 15:13:00,
2013-08-09 11:19:00,69.4,61.9,31.87,North,0,0.0,0.0,77,0.00,,,0.00,VWS V14.01,2013-08-09 15:19:00,
2013-08-09 11:24:00,69.4,61.9,31.87,NW,307,0.0,0.0,77,0.00,,,0.00,VWS V14.01,2013-08-09 15:24:00,
2013-08-09 11:32:00,72.1,59.3,31.87,West,275,0.0,0.0,64,0.00,,,0.00,VWS V14.01,2013-08-09 15:32:00,
2013-08-09 11:37:00,73.0,60.2,31.87,NW,308,0.0,0.0,64,0.00,,,0.00,VWS V14.01,2013-08-09 15:37:00,
2013-08-09 11:43:00,73.0,60.2,31.87,NNW,340,0.0,0.0,64,0.00,,,0.00,VWS V14.01,2013-08-09 15:43:00,
2013-08-09 11:48:00,74.7,57.9,31.87,NNW,329,0.0,0.0,56,0.00,,,0.00,VWS V14.01,2013-08-09 15:48:00,
2013-08-09 11:54:00,74.7,57.9,31.87,NW,326,0.0,0.0,56,0.00,,,0.00,VWS V14.01,2013-08-09 15:54:00,
2013-08-09 12:01:00,74.7,57.9,31.87,WNW,291,4.0,13.4,56,0.00,,,0.00,VWS V14.01,2013-08-09 16:01:00,
2013-08-09 12:07:00,77.0,59.1,31.87,NNW,335,0.0,0.0,54,0.00,,,0.00,VWS V14.01,2013-08-09 16:07:00,
2013-08-09 12:12:00,77.0,59.1,31.87,SW,230,0.0,0.0,54,0.00,,,0.00,VWS V14.01,2013-08-09 16:12:00,
2013-08-09 12:17:00,77.5,59.1,31.87,NW,305,0.0,0.0,53,0.00,,,0.00,VWS V14.01,2013-08-09 16:17:00,
2013-08-09 12:22:00,77.2,53.6,31.87,NNE,19,0.0,8.9,44,0.00,,,0.00,VWS V14.01,2013-08-09 16:22:00,
2013-08-09 12:27:00,78.1,56.8,31.87,North,7,0.0,7.8,48,0.00,,,0.00,VWS V14.01,2013-08-09 16:27:00,
2013-08-09 12:33:00,78.1,56.8,31.87,NW,308,3.4,7.8,48,0.00,,,0.00,VWS V14.01,2013-08-09 16:33:00,
2013-08-09 12:39:00,78.1,56.8,31.87,NW,311,0.0,7.8,48,0.00,,,0.00,VWS V14.01,2013-08-09 16:39:00,
2013-08-09 12:44:00,78.1,56.8,31.87,SW,222,0.0,12.3,48,0.00,,,0.00,VWS V14.01,2013-08-09 16:44:00,
2013-08-09 12:50:00,79.7,56.5,31.87,NW,310,0.0,0.0,45,0.00,,,0.00,VWS V14.01,2013-08-09 16:50:00,
2013-08-09 12:55:00,79.7,54.6,31.87,NNW,343,0.0,0.0,42,0.00,,,0.00,VWS V14.01,2013-08-09 16:55:00,
2013-08-09 13:02:00,80.4,54.6,31.87,NW,324,4.0,10.1,41,0.00,,,0.00,VWS V14.01,2013-08-09 17:02:00,
2013-08-09 13:07:00,80.8,56.2,31.87,North,0,0.0,10.1,43,0.00,,,0.00,VWS V14.01,2013-08-09 17:07:00,
2013-08-09 13:12:00,81.0,55.7,31.87,WSW,239,0.0,0.0,42,0.00,,,0.00,VWS V14.01,2013-08-09 17:12:00,
2013-08-09 13:18:00,80.8,56.9,31.87,NW,311,0.0,0.0,44,0.00,,,0.00,VWS V14.01,2013-08-09 17:18:00,
2013-08-09 13:23:00,80.8,56.9,31.87,NW,324,0.0,0.0,44,0.00,,,0.00,VWS V14.01,2013-08-09 17:23:00,
2013-08-09 13:29:00,80.8,56.9,31.87,North,357,0.0,0.0,44,0.00,,,0.00,VWS V14.01,2013-08-09 17:29:00,
2013-08-09 13:35:00,81.3,55.4,31.87,West,263,4.0,10.1,41,0.00,,,0.00,VWS V14.01,2013-08-09 17:35:00,
2013-08-09 13:42:00,81.1,55.2,31.87,NW,325,4.7,7.8,41,0.00,,,0.00,VWS V14.01,2013-08-09 17:42:00,
2013-08-09 13:47:00,82.4,56.4,31.87,NW,324,4.7,7.8,41,0.00,,,0.00,VWS V14.01,2013-08-09 17:47:00,
2013-08-09 13:52:00,82.4,56.4,31.87,WNW,286,0.0,8.9,41,0.00,,,0.00,VWS V14.01,2013-08-09 17:52:00,
2013-08-09 13:57:00,82.6,53.7,31.87,NNW,334,0.0,0.0,37,0.00,,,0.00,VWS V14.01,2013-08-09 17:57:00,
2013-08-09 14:03:00,82.6,55.8,31.87,SSW,211,3.4,5.6,40,0.00,,,0.00,VWS V14.01,2013-08-09 18:03:00,
2013-08-09 14:08:00,82.9,56.2,31.87,NW,319,4.7,10.1,40,0.00,,,0.00,VWS V14.01,2013-08-09 18:08:00,
2013-08-09 14:14:00,82.8,57.3,31.87,WSW,244,0.0,0.0,42,0.00,,,0.00,VWS V14.01,2013-08-09 18:14:00,
2013-08-09 14:21:00,83.5,57.3,31.87,WNW,283,0.0,8.9,41,0.00,,,0.00,VWS V14.01,2013-08-09 18:21:00,
2013-08-09 14:27:00,83.5,57.3,31.87,West,280,4.0,6.7,41,0.00,,,0.00,VWS V14.01,2013-08-09 18:27:00,
2013-08-09 14:32:00,84.4,57.5,31.87,South,172,4.0,6.7,40,0.00,,,0.00,VWS V14.01,2013-08-09 18:32:00,
2013-08-09 14:37:00,84.6,57.6,31.87,West,271,0.0,8.9,40,0.00,,,0.00,VWS V14.01,2013-08-09 18:37:00,
2013-08-09 14:43:00,84.6,57.6,31.87,SW,232,0.0,0.0,40,0.00,,,0.00,VWS V14.01,2013-08-09 18:43:00,
2013-08-09 14:49:00,84.4,56.7,31.87,ESE,107,3.4,6.7,39,0.00,,,0.00,VWS V14.01,2013-08-09 18:49:00,
2013-08-09 14:54:00,84.7,57.1,31.87,SSW,195,3.4,6.7,39,0.00,,,0.00,VWS V14.01,2013-08-09 18:54:00,
2013-08-09 15:02:00,84.9,54.2,31.87,NW,319,4.0,6.7,35,0.00,,,0.00,VWS V14.01,2013-08-09 19:02:00,
2013-08-09 15:07:00,84.0,54.2,31.87,WSW,246,0.0,6.7,36,0.00,,,0.00,VWS V14.01,2013-08-09 19:07:00,
2013-08-09 15:12:00,84.0,54.2,31.87,NW,325,4.7,7.8,36,0.00,,,0.00,VWS V14.01,2013-08-09 19:12:00,
2013-08-09 15:18:00,84.2,55.9,31.87,WNW,283,0.0,0.0,38,0.00,,,0.00,VWS V14.01,2013-08-09 19:18:00,
2013-08-09 15:23:00,84.9,58.6,31.87,SW,226,0.0,0.0,41,0.00,,,0.00,VWS V14.01,2013-08-09 19:23:00,
2013-08-09 15:28:00,85.1,58.1,31.87,South,190,0.0,5.6,40,0.00,,,0.00,VWS V14.01,2013-08-09 19:28:00,
2013-08-09 15:34:00,84.7,56.3,31.87,NW,325,5.4,8.9,38,0.00,,,0.00,VWS V14.01,2013-08-09 19:34:00,
2013-08-09 15:39:00,84.2,55.1,31.87,SW,229,0.0,0.0,37,0.00,,,0.00,VWS V14.01,2013-08-09 19:39:00,
2013-08-09 15:46:00,84.2,55.1,31.87,NNW,339,6.0,10.1,37,0.00,,,0.00,VWS V14.01,2013-08-09 19:46:00,
2013-08-09 15:52:00,84.2,55.1,31.87,NNW,327,6.0,10.1,37,0.00,,,0.00,VWS V14.01,2013-08-09 19:52:00,
2013-08-09 15:57:00,84.2,55.1,31.87,NW,306,0.0,7.8,37,0.00,,,0.00,VWS V14.01,2013-08-09 19:57:00,
2013-08-09 16:03:00,84.2,55.1,31.87,NW,305,4.7,10.1,37,0.00,,,0.00,VWS V14.01,2013-08-09 20:03:00,
2013-08-09 16:08:00,84.2,55.1,31.87,NNW,336,5.4,13.4,37,0.00,,,0.00,VWS V14.01,2013-08-09 20:08:00,
2013-08-09 16:13:00,84.2,55.1,31.87,NW,314,4.7,10.1,37,0.00,,,0.00,VWS V14.01,2013-08-09 20:13:00,
2013-08-09 16:18:00,86.9,59.0,31.87,NW,304,0.0,0.0,39,0.00,,,0.00,VWS V14.01,2013-08-09 20:18:00,
2013-08-09 16:24:00,86.7,58.1,31.87,WNW,303,0.0,5.6,38,0.00,,,0.00,VWS V14.01,2013-08-09 20:24:00,
2013-08-09 16:32:00,85.1,56.7,31.87,NNW,346,5.4,10.1,38,0.00,,,0.00,VWS V14.01,2013-08-09 20:32:00,
2013-08-09 16:37:00,84.9,56.5,31.87,NW,323,4.0,8.9,38,0.00,,,0.00,VWS V14.01,2013-08-09 20:37:00,
2013-08-09 16:42:00,84.4,56.0,31.87,NW,316,4.0,8.9,38,0.00,,,0.00,VWS V14.01,2013-08-09 20:42:00,
2013-08-09 16:47:00,83.8,55.5,31.87,NNW,335,5.4,8.9,38,0.00,,,0.00,VWS V14.01,2013-08-09 20:47:00,
2013-08-09 16:52:00,83.7,56.1,31.87,NNW,338,5.4,15.7,39,0.00,,,0.00,VWS V14.01,2013-08-09 20:52:00,
2013-08-09 16:57:00,84.6,57.6,31.87,NW,311,0.0,6.7,40,0.00,,,0.00,VWS V14.01,2013-08-09 20:57:00,
2013-08-09 17:02:00,84.4,58.1,31.87,NW,307,4.7,8.9,41,0.00,,,0.00,VWS V14.01,2013-08-09 21:02:00,
2013-08-09 17:08:00,82.9,56.2,31.87,NW,320,4.7,7.8,40,0.00,,,0.00,VWS V14.01,2013-08-09 21:08:00,
2013-08-09 17:13:00,82.9,56.2,31.87,NW,304,4.7,10.1,40,0.00,,,0.00,VWS V14.01,2013-08-09 21:13:00,
2013-08-09 17:18:00,82.8,56.0,31.87,NW,308,0.0,6.7,40,0.00,,,0.00,VWS V14.01,2013-08-09 21:18:00,
2013-08-09 17:24:00,82.8,56.0,31.87,NW,308,0.0,0.0,40,0.00,,,0.00,VWS V14.01,2013-08-09 21:24:00,
2013-08-09 17:29:00,82.8,56.0,31.87,NNW,335,5.4,8.9,40,0.00,,,0.00,VWS V14.01,2013-08-09 21:29:00,
2013-08-09 17:34:00,82.8,56.0,31.87,NNW,334,0.0,0.0,40,0.00,,,0.00,VWS V14.01,2013-08-09 21:34:00,
2013-08-09 17:41:00,82.2,56.9,31.87,NNW,332,0.0,0.0,42,0.00,,,0.00,VWS V14.01,2013-08-09 21:41:00,
2013-08-09 17:46:00,82.4,57.0,31.87,NW,313,0.0,0.0,42,0.00,,,0.00,VWS V14.01,2013-08-09 21:46:00,
2013-08-09 17:52:00,81.3,56.1,31.87,NW,314,0.0,6.7,42,0.00,,,0.00,VWS V14.01,2013-08-09 21:52:00,
2013-08-09 17:58:00,80.2,56.4,31.87,NW,312,0.0,0.0,44,0.00,,,0.00,VWS V14.01,2013-08-09 21:58:00,
2013-08-09 18:03:00,80.2,56.4,31.87,NW,312,0.0,0.0,44,0.00,,,0.00,VWS V14.01,2013-08-09 22:03:00,
2013-08-09 18:09:00,81.1,57.8,31.87,NW,312,0.0,0.0,45,0.00,,,0.00,VWS V14.01,2013-08-09 22:09:00,
2013-08-09 18:15:00,81.7,58.9,31.87,NW,312,0.0,0.0,46,0.00,,,0.00,VWS V14.01,2013-08-09 22:15:00,
2013-08-09 18:20:00,81.7,58.9,31.87,SW,227,0.0,0.0,46,0.00,,,0.00,VWS V14.01,2013-08-09 22:20:00,
2013-08-09 18:26:00,81.7,58.9,31.87,ENE,60,0.0,0.0,46,0.00,,,0.00,VWS V14.01,2013-08-09 22:26:00,
2013-08-09 18:32:00,80.1,57.4,31.87,ENE,60,0.0,0.0,46,0.00,,,0.00,VWS V14.01,2013-08-09 22:32:00,
2013-08-09 18:38:00,79.9,57.3,31.87,NW,322,0.0,0.0,46,0.00,,,0.00,VWS V14.01,2013-08-09 22:38:00,
2013-08-09 18:43:00,79.7,57.7,31.87,North,357,0.0,0.0,47,0.00,,,0.00,VWS V14.01,2013-08-09 22:43:00,
2013-08-09 18:49:00,79.7,57.7,31.87,WSW,258,0.0,0.0,47,0.00,,,0.00,VWS V14.01,2013-08-09 22:49:00,
2013-08-09 18:55:00,79.2,57.2,31.87,WSW,258,0.0,0.0,47,0.00,,,0.00,VWS V14.01,2013-08-09 22:55:00,
2013-08-09 19:00:00,78.3,55.8,31.87,WSW,258,0.0,0.0,46,0.00,,,0.00,VWS V14.01,2013-08-09 23:00:00,
2013-08-09 19:05:00,77.9,56.1,31.87,WSW,258,0.0,0.0,47,0.00,,,0.00,VWS V14.01,2013-08-09 23:05:00,
2013-08-09 19:11:00,77.9,56.1,31.87,WSW,258,0.0,0.0,47,0.00,,,0.00,VWS V14.01,2013-08-09 23:11:00,
2013-08-09 19:17:00,77.9,56.1,31.87,WSW,258,0.0,0.0,47,0.00,,,0.00,VWS V14.01,2013-08-09 23:17:00,
2013-08-09 19:22:00,77.9,56.1,31.87,WSW,258,0.0,0.0,47,0.00,,,0.00,VWS V14.01,2013-08-09 23:22:00,
2013-08-09 19:27:00,77.9,56.1,31.87,WSW,258,0.0,0.0,47,0.00,,,0.00,VWS V14.01,2013-08-09 23:27:00,
2013-08-09 19:32:00,77.9,56.1,31.87,WSW,258,0.0,0.0,47,0.00,,,0.00,VWS V14.01,2013-08-09 23:32:00,
2013-08-09 19:37:00,76.6,59.8,31.87,WSW,258,0.0,0.0,56,0.00,,,0.00,VWS V14.01,2013-08-09 23:37:00,
2013-08-09 19:43:00,76.5,60.1,31.87,WSW,258,0.0,0.0,57,0.00,,,0.00,VWS V14.01,2013-08-09 23:43:00,
2013-08-09 19:48:00,76.1,60.3,31.87,WSW,258,0.0,0.0,58,0.00,,,0.00,VWS V14.01,2013-08-09 23:48:00,
2013-08-09 19:53:00,75.7,60.4,31.87,WSW,258,0.0,0.0,59,0.00,,,0.00,VWS V14.01,2013-08-09 23:53:00,
2013-08-09 19:58:00,75.6,60.2,31.87,WSW,258,0.0,0.0,59,0.00,,,0.00,VWS V14.01,2013-08-09 23:58:00,
2013-08-09 20:04:00,75.2,60.4,31.87,WSW,258,0.0,0.0,60,0.00,,,0.00,VWS V14.01,2013-08-10 00:04:00,
2013-08-09 20:09:00,74.5,60.2,31.87,WSW,258,0.0,0.0,61,0.00,,,0.00,VWS V14.01,2013-08-10 00:09:00,
2013-08-09 20:14:00,73.9,59.7,31.87,WSW,258,0.0,0.0,61,0.00,,,0.00,VWS V14.01,2013-08-10 00:14:00,
2013-08-09 20:19:00,73.6,59.8,31.87,WSW,258,0.0,0.0,62,0.00,,,0.00,VWS V14.01,2013-08-10 00:19:00,
2013-08-09 20:25:00,73.4,59.6,31.87,WSW,258,0.0,0.0,62,0.00,,,0.00,VWS V14.01,2013-08-10 00:25:00,
2013-08-09 20:32:00,72.7,59.4,31.87,WSW,258,0.0,0.0,63,0.00,,,0.00,VWS V14.01,2013-08-10 00:32:00,
2013-08-09 20:37:00,72.5,59.6,31.87,WSW,258,0.0,0.0,64,0.00,,,0.00,VWS V14.01,2013-08-10 00:37:00,
2013-08-09 20:43:00,72.3,59.5,31.87,WSW,258,0.0,0.0,64,0.00,,,0.00,VWS V14.01,2013-08-10 00:43:00,
2013-08-09 20:49:00,72.1,59.3,31.87,WSW,258,0.0,0.0,64,0.00,,,0.00,VWS V14.01,2013-08-10 00:49:00,
2013-08-09 20:54:00,71.8,59.0,31.87,WSW,258,0.0,0.0,64,0.00,,,0.00,VWS V14.01,2013-08-10 00:54:00,
2013-08-09 21:00:00,71.2,58.9,31.87,WSW,258,0.0,0.0,65,0.00,,,0.00,VWS V14.01,2013-08-10 01:00:00,
2013-08-09 21:06:00,70.7,58.4,31.87,WSW,258,0.0,0.0,65,0.00,,,0.00,VWS V14.01,2013-08-10 01:06:00,
2013-08-09 21:11:00,70.7,58.4,31.87,WSW,258,0.0,0.0,65,0.00,,,0.00,VWS V14.01,2013-08-10 01:11:00,
2013-08-09 21:17:00,70.7,58.4,31.87,WSW,258,0.0,0.0,65,0.00,,,0.00,VWS V14.01,2013-08-10 01:17:00,
2013-08-09 21:22:00,69.8,57.9,31.87,WSW,258,0.0,0.0,66,0.00,,,0.00,VWS V14.01,2013-08-10 01:22:00,
2013-08-09 21:27:00,69.4,58.0,31.87,WSW,258,0.0,0.0,67,0.00,,,0.00,VWS V14.01,2013-08-10 01:27:00,
2013-08-09 21:32:00,69.3,58.3,31.87,WSW,258,0.0,0.0,68,0.00,,,0.00,VWS V14.01,2013-08-10 01:32:00,
2013-08-09 21:38:00,69.1,58.1,31.87,WSW,258,0.0,0.0,68,0.00,,,0.00,VWS V14.01,2013-08-10 01:38:00,
2013-08-09 21:44:00,68.9,58.3,31.87,WSW,258,0.0,0.0,69,0.00,,,0.00,VWS V14.01,2013-08-10 01:44:00,
2013-08-09 21:49:00,68.9,58.3,31.87,WSW,258,0.0,0.0,69,0.00,,,0.00,VWS V14.01,2013-08-10 01:49:00,
2013-08-09 21:56:00,68.9,58.3,31.87,WSW,258,0.0,0.0,69,0.00,,,0.00,VWS V14.01,2013-08-10 01:56:00,
2013-08-09 22:02:00,68.9,58.3,31.87,WSW,258,0.0,0.0,69,0.00,,,0.00,VWS V14.01,2013-08-10 02:02:00,
2013-08-09 22:07:00,68.2,58.4,31.87,WSW,258,0.0,0.0,71,0.00,,,0.00,VWS V14.01,2013-08-10 02:07:00,
2013-08-09 22:12:00,68.2,58.4,31.87,WSW,258,0.0,0.0,71,0.00,,,0.00,VWS V14.01,2013-08-10 02:12:00,
2013-08-09 22:17:00,68.0,58.3,31.87,WSW,258,0.0,0.0,71,0.00,,,0.00,VWS V14.01,2013-08-10 02:17:00,
2013-08-09 22:22:00,67.6,58.3,31.87,WSW,258,0.0,0.0,72,0.00,,,0.00,VWS V14.01,2013-08-10 02:22:00,
2013-08-09 22:27:00,67.5,58.1,31.87,WSW,258,0.0,0.0,72,0.00,,,0.00,VWS V14.01,2013-08-10 02:27:00,
2013-08-09 22:32:00,67.5,58.5,31.87,WSW,258,0.0,0.0,73,0.00,,,0.00,VWS V14.01,2013-08-10 02:32:00,
2013-08-09 22:38:00,67.3,58.3,31.87,WSW,258,0.0,0.0,73,0.00,,,0.00,VWS V14.01,2013-08-10 02:38:00,
2013-08-09 22:43:00,67.1,58.5,31.87,WSW,258,0.0,0.0,74,0.00,,,0.00,VWS V14.01,2013-08-10 02:43:00,
2013-08-09 22:48:00,67.1,58.5,31.87,WSW,258,0.0,0.0,74,0.00,,,0.00,VWS V14.01,2013-08-10 02:48:00,
2013-08-09 22:54:00,66.9,58.8,31.87,WSW,258,0.0,0.0,75,0.00,,,0.00,VWS V14.01,2013-08-10 02:54:00,
2013-08-09 22:59:00,66.9,58.8,31.87,WSW,258,0.0,0.0,75,0.00,,,0.00,VWS V14.01,2013-08-10 02:59:00,
2013-08-09 23:06:00,66.7,58.9,31.87,WSW,258,0.0,0.0,76,0.00,,,0.00,VWS V14.01,2013-08-10 03:06:00,
2013-08-09 23:12:00,66.6,58.8,31.87,WSW,258,0.0,0.0,76,0.00,,,0.00,VWS V14.01,2013-08-10 03:12:00,
2013-08-09 23:17:00,66.4,59.0,31.87,WSW,258,0.0,0.0,77,0.00,,,0.00,VWS V14.01,2013-08-10 03:17:00,
2013-08-09 23:23:00,66.2,58.8,31.87,WSW,258,0.0,0.0,77,0.00,,,0.00,VWS V14.01,2013-08-10 03:23:00,
2013-08-09 23:28:00,66.0,59.0,31.87,WSW,258,0.0,0.0,78,0.00,,,0.00,VWS V14.01,2013-08-10 03:28:00,
2013-08-09 23:34:00,66.0,59.0,31.87,WSW,258,0.0,0.0,78,0.00,,,0.00,VWS V14.01,2013-08-10 03:34:00,
2013-08-09 23:39:00,66.0,59.3,31.87,WSW,258,0.0,0.0,79,0.00,,,0.00,VWS V14.01,2013-08-10 03:39:00,
2013-08-09 23:46:00,65.8,59.2,31.87,WSW,258,0.0,0.0,79,0.00,,,0.00,VWS V14.01,2013-08-10 03:46:00,
2013-08-09 23:52:00,65.7,59.3,31.87,WSW,258,0.0,0.0,80,0.00,,,0.00,VWS V14.01,2013-08-10 03:52:00,
2013-08-09 23:57:00,65.8,59.5,31.87,WSW,258,0.0,0.0,80,0.00,,,0.00,VWS V14.01,2013-08-10 03:57:00,